• In Belarus
  • List of Countries
  • For 7 days
  • Water Temperature
  • Weather Map
  • Weather Widgets
  • user-avatar
    Login

    Hourly Weather Sofia

    Today, 20 October, Sunday

    Time Temperature Precipitation Wind Pressure Humidity
    00:00 +15°C° 0 mm 1 mps 713 mmHg 66%
    01:00 +15°C° 0 mm 1 mps 713 mmHg 68%
    02:00 +15°C° 0 mm 1 mps 713 mmHg 69%
    03:00 +13°C° 0 mm 0 mps 713 mmHg 71%
    04:00 +13°C° 0 mm 0 mps 713 mmHg 72%
    05:00 +13°C° 0 mm 0 mps 713 mmHg 74%
    06:00 +13°C° 0 mm 0 mps 714 mmHg 71%
    07:00 +14°C° 0 mm 0 mps 714 mmHg 69%
    08:00 +15°C° 0 mm 0 mps 714 mmHg 67%
    09:00 +17°C° 0 mm 0 mps 714 mmHg 59%
    10:00 +21°C° 0 mm 1 mps 715 mmHg 52%
    11:00 +24°C° 0 mm 1 mps 715 mmHg 45%
    12:00 +25°C° 0 mm 1 mps 715 mmHg 42%
    13:00 +26°C° 0 mm 1 mps 715 mmHg 39%
    14:00 +26°C° 0 mm 1 mps 715 mmHg 35%
    15:00 +25°C° 0 mm 1 mps 714 mmHg 39%
    16:00 +24°C° 0 mm 1 mps 714 mmHg 42%
    17:00 +23°C° 0 mm 1 mps 714 mmHg 46%
    18:00 +21°C° 0 mm 1 mps 714 mmHg 51%
    19:00 +20°C° 0 mm 1 mps 714 mmHg 56%
    20:00 +18°C° 0 mm 1 mps 714 mmHg 61%
    21:00 +18°C° 0 mm 1 mps 714 mmHg 63%
    22:00 +16°C° 0 mm 1 mps 715 mmHg 65%
    23:00 +16°C° 0 mm 1 mps 715 mmHg 67%

    Tomorrow, 21 October, Monday

    Time Temperature Precipitation Wind Pressure Humidity
    00:00 +15°C° 0 mm 1 mps 715 mmHg 69%
    01:00 +14°C° 0 mm 0 mps 715 mmHg 71%
    02:00 +14°C° 0 mm 0 mps 715 mmHg 73%
    03:00 +13°C° 0 mm 0 mps 714 mmHg 75%
    04:00 +13°C° 0 mm 0 mps 714 mmHg 76%
    05:00 +13°C° 0 mm 0 mps 714 mmHg 77%
    06:00 +13°C° 0 mm 0 mps 715 mmHg 74%
    07:00 +14°C° 0 mm 0 mps 715 mmHg 71%
    08:00 +15°C° 0 mm 0 mps 715 mmHg 68%
    09:00 +17°C° 0 mm 0 mps 715 mmHg 60%
    10:00 +20°C° 0 mm 0 mps 716 mmHg 51%
    11:00 +22°C° 0 mm 0 mps 716 mmHg 43%
    12:00 +25°C° 0 mm 1 mps 716 mmHg 40%
    13:00 +26°C° 0 mm 1 mps 716 mmHg 37%
    14:00 +26°C° 0 mm 1 mps 715 mmHg 34%
    15:00 +25°C° 0 mm 1 mps 715 mmHg 38%
    16:00 +24°C° 0 mm 2 mps 715 mmHg 41%
    17:00 +23°C° 0 mm 2 mps 714 mmHg 45%
    18:00 +21°C° 0 mm 1 mps 714 mmHg 51%
    19:00 +20°C° 0 mm 1 mps 715 mmHg 56%
    20:00 +18°C° 0 mm 1 mps 715 mmHg 62%
    21:00 +18°C° 0 mm 1 mps 715 mmHg 63%
    22:00 +16°C° 0 mm 1 mps 715 mmHg 65%
    23:00 +16°C° 0 mm 1 mps 715 mmHg 67%

    Day after tomorrow, 22 October, Tuesday

    Time Temperature Precipitation Wind Pressure Humidity
    00:00 +15°C° 0 mm 1 mps 715 mmHg 68%
    01:00 +14°C° 0 mm 0 mps 715 mmHg 70%
    02:00 +13°C° 0 mm 0 mps 715 mmHg 72%
    03:00 +13°C° 0 mm 0 mps 715 mmHg 73%
    04:00 +13°C° 0 mm 0 mps 715 mmHg 74%
    05:00 +12°C° 0 mm 0 mps 715 mmHg 76%
    06:00 +13°C° 0 mm 0 mps 715 mmHg 73%
    07:00 +14°C° 0 mm 0 mps 715 mmHg 70%
    08:00 +14°C° 0 mm 0 mps 716 mmHg 68%
    09:00 +19°C° 0 mm 1 mps 716 mmHg 59%
    10:00 +21°C° 0 mm 1 mps 716 mmHg 50%
    11:00 +23°C° 0 mm 1 mps 717 mmHg 41%
    12:00 +24°C° 0 mm 2 mps 716 mmHg 37%
    13:00 +25°C° 0 mm 2 mps 716 mmHg 33%
    14:00 +26°C° 0 mm 2 mps 716 mmHg 29%
    15:00 +24°C° 0 mm 2 mps 716 mmHg 33%
    16:00 +23°C° 0 mm 2 mps 715 mmHg 37%
    17:00 +21°C° 0 mm 2 mps 715 mmHg 41%
    18:00 +19°C° 0 mm 2 mps 715 mmHg 46%
    19:00 +19°C° 0 mm 1 mps 715 mmHg 50%
    20:00 +16°C° 0 mm 1 mps 715 mmHg 55%
    21:00 +16°C° 0 mm 1 mps 715 mmHg 55%
    22:00 +15°C° 0 mm 1 mps 715 mmHg 56%
    23:00 +15°C° 0 mm 1 mps 715 mmHg 57%

    23 October, Wednesday

    Time Temperature Precipitation Wind Pressure Humidity
    00:00 +13°C° 0 mm 0 mps 715 mmHg 58%
    01:00 +13°C° 0 mm 0 mps 715 mmHg 59%
    02:00 +12°C° 0 mm 0 mps 715 mmHg 60%
    03:00 +12°C° 0 mm 0 mps 715 mmHg 61%
    04:00 +12°C° 0 mm 0 mps 714 mmHg 62%
    05:00 +11°C° 0 mm 0 mps 714 mmHg 63%
    06:00 +12°C° 0 mm 0 mps 714 mmHg 62%
    07:00 +13°C° 0 mm 0 mps 715 mmHg 60%
    08:00 +13°C° 0 mm 0 mps 715 mmHg 58%
    09:00 +18°C° 0 mm 1 mps 715 mmHg 51%
    10:00 +20°C° 0 mm 1 mps 715 mmHg 43%
    11:00 +23°C° 0 mm 1 mps 715 mmHg 36%
    12:00 +24°C° 0 mm 1 mps 715 mmHg 32%
    13:00 +25°C° 0 mm 2 mps 715 mmHg 29%
    14:00 +26°C° 0 mm 2 mps 714 mmHg 25%
    15:00 +24°C° 0 mm 2 mps 714 mmHg 28%
    16:00 +23°C° 0 mm 2 mps 714 mmHg 32%
    17:00 +21°C° 0 mm 1 mps 713 mmHg 35%
    18:00 +20°C° 0 mm 1 mps 713 mmHg 37%
    19:00 +18°C° 0 mm 1 mps 713 mmHg 40%
    20:00 +15°C° 0 mm 1 mps 713 mmHg 43%
    21:00 +15°C° 0 mm 1 mps 713 mmHg 44%
    22:00 +15°C° 0 mm 1 mps 713 mmHg 45%
    23:00 +14°C° 0 mm 1 mps 713 mmHg 46%

    24 October, Thursday

    Time Temperature Precipitation Wind Pressure Humidity
    00:00 +14°C° 0 mm 1 mps 713 mmHg 47%
    01:00 +13°C° 0 mm 1 mps 713 mmHg 48%
    02:00 +13°C° 0 mm 1 mps 713 mmHg 49%
    03:00 +11°C° 0 mm 0 mps 713 mmHg 50%
    04:00 +11°C° 0 mm 0 mps 712 mmHg 50%
    05:00 +11°C° 0 mm 0 mps 712 mmHg 51%
    06:00 +11°C° 0 mm 0 mps 712 mmHg 50%
    07:00 +12°C° 0 mm 0 mps 712 mmHg 49%
    08:00 +12°C° 0 mm 0 mps 713 mmHg 48%
    09:00 +15°C° 0 mm 0 mps 713 mmHg 41%
    10:00 +18°C° 0 mm 0 mps 713 mmHg 35%
    11:00 +21°C° 0 mm 0 mps 713 mmHg 28%
    12:00 +23°C° 0 mm 1 mps 713 mmHg 26%
    13:00 +24°C° 0 mm 1 mps 713 mmHg 23%
    14:00 +25°C° 0 mm 1 mps 713 mmHg 21%
    15:00 +24°C° 0 mm 1 mps 712 mmHg 24%
    16:00 +22°C° 0 mm 1 mps 712 mmHg 28%
    17:00 +21°C° 0 mm 1 mps 711 mmHg 31%
    18:00 +19°C° 0 mm 1 mps 711 mmHg 34%
    19:00 +18°C° 0 mm 1 mps 711 mmHg 37%
    20:00 +15°C° 0 mm 1 mps 711 mmHg 40%
    21:00 +14°C° 0 mm 1 mps 711 mmHg 41%
    22:00 +14°C° 0 mm 1 mps 711 mmHg 42%
    23:00 +13°C° 0 mm 1 mps 711 mmHg 43%

    25 October, Friday

    Time Temperature Precipitation Wind Pressure Humidity
    00:00 +13°C° 0 mm 1 mps 711 mmHg 44%
    01:00 +13°C° 0 mm 1 mps 711 mmHg 45%
    02:00 +12°C° 0 mm 1 mps 711 mmHg 45%
    03:00 +12°C° 0 mm 1 mps 711 mmHg 46%
    04:00 +10°C° 0 mm 0 mps 711 mmHg 48%
    05:00 +10°C° 0 mm 0 mps 711 mmHg 49%
    06:00 +11°C° 0 mm 0 mps 711 mmHg 48%
    07:00 +11°C° 0 mm 0 mps 711 mmHg 47%
    08:00 +12°C° 0 mm 0 mps 711 mmHg 46%
    09:00 +15°C° 0 mm 0 mps 711 mmHg 40%
    10:00 +19°C° 0 mm 1 mps 712 mmHg 34%
    11:00 +22°C° 0 mm 1 mps 712 mmHg 28%
    12:00 +23°C° 0 mm 1 mps 712 mmHg 26%
    13:00 +24°C° 0 mm 1 mps 712 mmHg 24%
    14:00 +25°C° 0 mm 2 mps 712 mmHg 21%
    15:00 +23°C° 0 mm 2 mps 711 mmHg 25%
    16:00 +21°C° 0 mm 2 mps 711 mmHg 28%
    17:00 +19°C° 0 mm 2 mps 710 mmHg 32%
    18:00 +18°C° 0 mm 2 mps 710 mmHg 35%
    19:00 +16°C° 0 mm 1 mps 711 mmHg 38%
    20:00 +14°C° 0 mm 1 mps 711 mmHg 41%
    21:00 +14°C° 0 mm 1 mps 711 mmHg 43%
    22:00 +13°C° 0 mm 1 mps 711 mmHg 44%
    23:00 +13°C° 0 mm 1 mps 711 mmHg 46%
    Show more